This is the latest recevied weather packets stored in our database for station/object WP3OF-3. If no packets are shown the sender has not sent any weather packets the latest 10 day(s).
| Time | Temp. | Humidity | Pressure | Rain* | Wind** | Luminosity | Snow |
|---|---|---|---|---|---|---|---|
| 1777693766 | 22.78° C | 96% | 1018.6 hPa | 0 mm | - | - | - |
| 1777693465 | 22.78° C | 96% | 1018.4 hPa | 0 mm | - | - | - |
| 1777693163 | 22.78° C | 96% | 1018.7 hPa | 0 mm | - | - | - |
| 1777692860 | 22.78° C | 96% | 1018.5 hPa | 0 mm | - | - | - |
| 1777692556 | 22.78° C | 96% | 1018.5 hPa | 0 mm | - | - | - |
| 1777692253 | 22.78° C | 96% | 1018.8 hPa | 0 mm | - | - | - |
| 1777691950 | 22.78° C | 96% | 1018.6 hPa | 0 mm | - | - | - |
| 1777691649 | 22.78° C | 96% | 1018.7 hPa | 0 mm | - | - | - |
| 1777691347 | 22.78° C | 96% | 1018.6 hPa | 0 mm | - | - | - |
| 1777691045 | 22.78° C | 96% | 1018.4 hPa | 0 mm | - | - | - |
| 1777690743 | 22.78° C | 96% | 1018.7 hPa | 0 mm | - | - | - |
| 1777690439 | 22.78° C | 96% | 1018.5 hPa | 0 mm | - | - | - |
| 1777690137 | 22.78° C | 96% | 1018.5 hPa | 0 mm | - | - | - |
| 1777689834 | 22.78° C | 96% | 1018.4 hPa | 0 mm | - | - | - |
| 1777689532 | 22.78° C | 96% | 1018.5 hPa | 0 mm | - | - | - |
| 1777689229 | 22.78° C | 95% | 1018.4 hPa | 0 mm | - | - | - |
| 1777688928 | 22.78° C | 96% | 1018.5 hPa | 0 mm | - | - | - |
| 1777688623 | 22.78° C | 95% | 1018.3 hPa | 0 mm | - | - | - |
| 1777688320 | 22.78° C | 95% | 1018.2 hPa | 0 mm | - | - | - |
| 1777688017 | 22.78° C | 95% | 1018.3 hPa | 0 mm | - | - | - |
| 1777687715 | 23.33° C | 95% | 1018.1 hPa | 0 mm | - | - | - |
| 1777674381 | 24.44° C | 92% | 1016.2 hPa | 0 mm | - | - | - |
| 1777673775 | 24.44° C | 90% | 1016.2 hPa | 1.78 mm | - | - | - |
| 1777673171 | 25.56° C | 85% | 1016.3 hPa | 8.89 mm | - | - | - |
| 1777671954 | 26.11° C | 84% | 1015.8 hPa | 0 mm | - | - | - |
* Rain latest hour (hover to see other rain measurements)
** Current wind speed in m/s (hover to see current wind gust speed)